Terminal Aerodrome Forecast
Issued by NWS Grand Rapids, MI

Home | Current Version | Previous Version | Text Only | Print | Product List | Glossary On
Versions: 1 2 3 4 5 6 7 8 9 10 11 12 13 14 15 16 17 18 19 20 21 22 23 24 25 26 27 28 29 30 31 32 33 34 35 36 37 38 39
000
FTUS43 KGRR 031148
TAFGRR
TAF
KGRR 031148Z 0312/0412 28012G20KT P6SM OVC200
     FM031500 28011KT P6SM SCT040 BKN200
     FM040100 VRB03KT P6SM SKC=

USA.gov is the U.S. government's official web portal to all federal, state and local government web resources and services.